Weather in Vinogradovka

Russia / Amur Oblast     49°39′50″N   129°24′36″E
temp.,
°C
wind,
m/s
gust,
m/s
humid.,
%
clouds,
%
prec.,
mm/h
press.,
hPa
HPBL,
m
14 april, wed
wed1400:00−4wnw69486 0.0 10061035
03:00−5wnw6104763 0.0 10051171
06:00−5wnw6105289 0.0 1006797
09:00−3nw71047100 0.0 10061660
12:00−1nw71038100 0.1 10062420
15:00+1nw71030100 0.1 10062649
18:000nnw593463 0.0 10072093
21:00−3nnw11420 0.0 100910
15 april, thu
thu1500:00−3wsw224298 0.0 100921
03:00−3wsw354543 0.0 101092
06:00−3wnw114241 0.0 101020
09:00+2ese11295 0.0 1011490
12:00+5sse232839 0.0 10101702
15:00+7sse2329100 0.0 10091735
18:00+6e3541100 0.0 1009158
21:00+3ene5949100 0.1 1010229
16 april, fri
fri1600:00+1e6981100 1.1 1008328
03:00+1e71497100 5.5 1006750
06:00+1ese71594100 2.8 1004633
09:00+4se71369100 2.9 1003608
12:00+10se7953100 0.0 10021089
15:00+12e5856100 0.0 10001586
18:00+9se71266100 0.8 1001544
21:00+7se4877100 0.9 1003187
17 april, sat
sat1700:00+5ese3987100 0.1 1004517
03:00+5ne4693100 0.4 1004242
06:00+3nne478699 0.1 1005200
09:00+6nne6875100 0.1 1006514
12:00+10n555722 0.0 10061313
15:00+9nnw77616 0.1 10061185
18:00+7nnw687637 0.0 1008684
21:00+4nw59894 0.0 1009220
18 april, sun
sun1800:00+2nw49855 0.0 1010191
03:00+1nw34810 0.0 101180
06:00+1wnw34740 0.0 101182
09:00+7wnw33430 0.0 1011417
12:00+12wnw34290 0.0 10101131
15:00+14wnw34280 0.0 10081377
18:00+13wnw34405 0.0 1008305
21:00+8nw2260100 0.0 100911